Temp_Advection
nan nan nan nan nan nan nan nan nan nan nan nan nan nan nan nan nan nan nan nan nan nan nan nan nan nan nan nan nan nan nan nan nan nan nan nan nan nan nan nan nan nan nan nan nan nan nan
nan -0 0 -0 -0 0 1 0 -0 -0 0 -0 0 0 -0 -0 0 0 0 -0 -0 0 0 0 0 0 -0 -0 0 0 0 0 0 0 0 0 -0 -0 -1 -0 0 0 -0 -0 -0 -0 nan
nan 0 0 0 0 0 -0 -0 -0 0 0 0 -0 -0 0 0 0 0 0 -0 0 0 0 0 0 0 -1 -0 0 0 0 0 0 0 0 0 0 -0 -0 -0 0 0 -0 -0 -0 -0 nan
nan -0 -0 0 0 -0 -0 -0 0 0 0 0 0 0 0 0 0 0 0 0 0 0 0 0 0 -0 -0 0 0 0 0 0 0 0 0 0 0 -1 -0 -0 -0 -0 -0 0 0 -1 nan
nan -0 -0 -0 -0 -0 -0 0 0 0 0 0 0 0 0 0 0 0 0 0 0 0 0 0 0 -0 -0 0 0 0 0 0 0 0 0 0 -0 -1 -1 -0 -0 -0 0 -0 -0 -1 nan
nan 0 -0 -0 -0 0 0 0 0 0 0 0 0 0 0 0 -0 -0 0 0 0 0 0 0 -0 -0 -0 0 0 0 0 0 0 0 -0 -1 -2 -1 -0 0 -0 0 -0 -0 0 -0 nan
nan -0 -0 0 0 0 0 0 0 0 0 0 0 0 0 0 0 0 -0 0 0 -0 -2 -1 -0 0 0 0 0 0 0 0 -0 -1 -1 -1 -1 0 0 0 0 0 -0 -0 0 -0 nan
nan 0 0 0 0 0 0 0 0 0 0 0 0 0 0 -0 -0 0 -0 -0 -0 -0 -0 0 0 0 0 0 0 0 0 -0 -1 -0 -0 -1 0 -0 -0 -0 -0 -0 -0 0 -0 0 nan
nan 0 0 0 0 0 0 0 0 0 0 0 0 0 0 0 -0 0 0 -0 -0 -0 -0 -0 -0 -0 0 -0 -0 -0 -0 -0 -1 -0 -0 0 -0 -0 -0 -0 -0 0 0 -0 0 -1 nan
nan 0 0 0 0 0 0 0 0 0 0 0 0 0 -0 -0 -0 -0 -0 -0 -0 -0 -0 -1 -0 0 -0 -0 -0 -0 -0 -0 -0 -0 -0 0 -0 -0 -0 -0 0 -0 -0 -0 -0 -0 nan
nan 0 0 0 0 0 0 0 0 0 0 0 0 0 0 -0 -0 -0 -0 -0 -0 -0 -0 -0 -0 -0 -0 -0 -0 0 0 -0 -0 -0 -0 0 -0 -0 0 -0 -0 0 -0 0 -0 -0 nan
nan 0 0 0 0 0 0 0 0 0 0 0 0 0 0 0 0 -0 -0 -0 -0 -1 -0 -0 -0 -0 -0 -0 -0 -0 -0 -1 -0 -0 -1 0 -0 -0 0 -0 -0 -0 -0 -1 -0 -0 nan
nan 0 0 0 0 0 0 -0 0 0 0 0 -0 -0 0 0 0 0 0 -0 -1 0 0 0 -0 -0 -0 -0 -0 -1 -0 -1 -0 -0 -0 -0 -0 -0 -0 -0 -0 -1 -1 -0 0 0 nan
nan 0 0 0 0 0 0 0 0 -0 -0 -0 -0 0 0 0 -0 0 -0 -1 0 -0 0 0 0 -0 -0 0 -0 -0 -0 -0 0 -0 -0 0 -0 -0 -0 -0 -0 -0 -0 0 0 0 nan
nan 0 0 0 0 0 0 0 0 -0 -0 -0 0 0 -0 -0 0 0 -0 -1 -0 -0 0 -0 -0 -0 -0 0 -0 -0 -0 -0 -0 0 -0 -0 -0 0 -0 -0 -0 0 0 -0 -0 0 nan
nan 0 0 0 0 0 0 0 0 -0 -0 0 0 -0 -0 0 0 -0 -1 -0 -0 -0 0 -0 -0 -0 -0 0 0 0 0 -0 -0 -0 -0 0 -0 -0 0 -0 -0 -0 -0 -0 0 0 nan
nan 0 0 0 0 0 0 0 0 -0 -0 -0 -0 -0 -0 0 -0 -1 -1 -0 -0 -0 0 0 0 -0 -0 -0 -0 -0 -0 -0 -0 -0 -0 -0 0 -0 -0 0 0 -0 0 0 -0 0 nan
nan 0 0 0 0 0 0 0 0 0 -0 -0 -0 -0 0 0 -1 -1 0 -0 -0 0 0 0 0 0 0 -0 -0 -0 -0 -0 -0 -0 0 -0 -0 -0 -0 -0 -0 -0 -0 -0 -0 0 nan
nan -0 0 0 -0 0 -0 -0 -0 0 -0 -0 -0 -0 0 -0 -1 0 -0 0 0 -0 -0 -0 -0 0 0 -0 -0 -0 -0 -0 0 -0 -0 -0 0 0 -0 0 0 0 0 -0 -0 -0 nan
nan -0 -0 -0 -0 -0 -0 -0 -0 -0 -0 -0 -0 -0 0 -1 -1 -1 0 0 0 -0 0 0 0 0 -0 0 0 0 0 0 0 0 0 -0 -0 -0 0 0 -0 -0 -0 0 -0 -0 nan
nan -1 -0 -0 -0 -0 -0 -0 -0 -0 -0 0 -0 -0 -0 0 0 -0 -0 -0 0 -0 0 0 0 0 0 0 0 0 -0 -0 0 0 0 0 0 0 0 -0 -0 -0 0 0 -0 -1 nan
nan -2 -1 -0 -0 -0 -0 -0 -0 -0 -0 -0 0 -0 -0 -0 0 -0 -0 -0 -0 -0 -0 -0 -0 -0 0 -0 -0 -0 -0 -0 -0 0 0 0 -0 -0 -0 -0 0 0 -0 -0 -0 -0 nan
nan -2 -1 -1 -0 -0 -1 -0 -0 -0 -0 -0 -0 -0 -0 0 0 0 -0 -0 -0 -0 -0 -0 -0 -0 -0 -0 -0 0 0 0 0 -0 -0 0 0 -0 -0 -0 0 -0 -0 -0 -0 -0 nan
nan -0 -1 -0 -0 -0 -0 -1 -0 -0 -0 -0 -0 0 0 0 -0 -0 -0 -0 -0 0 0 0 -0 -0 -0 -0 0 0 0 0 0 0 -0 -0 -0 -0 0 -1 -0 -0 0 -0 -0 -0 nan
nan -0 -0 -0 -0 -0 -0 -0 -0 -0 -0 -0 -0 -0 0 0 -0 -0 0 0 0 0 0 0 0 0 0 0 -0 -0 -0 0 -0 -0 0 -0 0 0 0 -0 -2 -0 -0 -0 -0 0 nan
nan -0 -0 -0 -0 -0 -0 -0 -0 -0 -0 -0 -0 -0 -0 0 -0 -0 0 0 -0 0 -0 0 0 0 0 -0 0 0 -0 0 0 -0 -0 0 0 -0 -0 -0 -1 -0 0 -0 -0 -0 nan
nan -0 -0 -0 -0 -0 -0 -0 -0 -0 -0 -0 -0 -0 -0 -0 -0 0 0 0 -0 -0 0 0 0 0 1 -0 0 0 -0 0 0 -0 -0 -0 -0 -0 -0 -0 -0 -1 -0 -0 -0 -0 nan
nan 0 -0 -0 -0 -0 -0 -0 -0 -0 -0 -0 -0 -0 -0 -0 -1 0 0 -0 0 0 -0 -0 -0 0 -0 0 0 0 -0 0 0 -0 -0 -0 -1 -0 -0 -0 -1 -1 0 -0 -0 -0 nan
nan nan nan nan nan nan nan nan nan nan nan nan nan nan nan nan nan nan nan nan nan nan nan nan nan nan nan nan nan nan nan nan nan nan nan nan nan nan nan nan nan nan nan nan nan nan nan
Wind_Speed
22 23 24 23 25 25 20 22 20 17 20 19 17 14 11 9 9 13 14 14 12 12 17 13 9 7 6 10 7 8 8 6 7 7 6 8 8 3 4 4 4 4 3 5 3 1 5
24 22 25 23 25 26 28 21 18 17 19 19 14 9 8 10 13 13 12 12 10 14 12 8 7 6 7 8 8 10 11 8 7 6 5 3 6 10 9 5 4 2 5 4 3 4 3
22 21 22 23 24 26 24 25 25 25 19 18 15 15 14 12 11 11 11 11 10 12 12 10 10 13 17 11 9 10 11 12 11 9 10 9 7 2 5 4 4 3 3 3 6 5 4
23 24 25 25 25 25 23 21 19 16 15 16 16 15 15 14 13 13 13 12 12 16 10 8 7 3 8 11 11 6 10 11 11 11 11 10 11 11 6 5 4 4 4 3 4 12 5
22 23 22 23 22 20 19 18 17 15 14 14 17 18 17 18 18 16 15 14 15 12 9 8 7 7 5 9 9 10 9 10 11 11 11 8 6 7 5 3 4 7 2 2 2 10 5
16 16 16 15 14 13 13 13 14 14 13 15 17 17 17 16 16 20 19 17 13 11 11 9 8 7 7 7 10 10 10 8 7 7 6 6 7 4 5 6 2 1 3 3 3 6 6
12 11 10 11 11 11 10 10 12 14 13 13 11 11 13 16 19 13 13 14 6 9 27 13 9 11 7 8 12 7 8 8 7 8 4 8 8 3 0 3 1 2 2 3 4 4 7
9 8 7 6 7 7 8 9 11 12 12 12 10 7 8 11 9 4 3 4 9 13 15 16 14 13 12 7 5 8 5 4 6 4 3 7 3 3 3 4 2 3 1 3 6 2 2
10 9 9 8 8 8 9 9 10 12 14 12 11 9 8 5 3 6 13 19 16 9 6 9 13 9 8 10 8 13 8 5 6 6 6 6 4 1 1 4 4 2 2 1 4 8 1
11 10 9 10 10 9 9 10 11 11 9 9 10 9 9 10 10 13 10 9 5 2 5 9 8 6 8 3 5 13 7 3 5 4 4 5 1 1 2 3 3 1 1 2 2 5 2
17 14 11 8 7 7 7 7 7 6 6 7 7 6 7 5 7 3 3 2 1 1 5 6 6 5 8 5 2 9 11 6 4 3 4 2 1 3 2 1 1 2 3 1 3 3 4
18 17 16 13 8 3 2 1 2 3 4 5 5 4 3 4 3 3 2 2 1 6 2 5 5 7 4 9 4 5 5 7 4 4 7 3 2 2 1 1 2 2 4 6 3 3 3
17 18 19 18 14 9 3 0 0 1 3 5 6 2 2 2 1 2 2 1 5 6 2 4 3 4 3 6 5 8 5 6 3 4 3 5 2 2 3 1 3 7 6 3 5 3 4
15 15 17 18 19 14 9 5 2 2 3 5 8 6 2 2 1 3 2 5 7 3 1 1 3 3 4 5 4 7 3 3 5 4 3 4 6 2 5 2 1 3 5 5 5 2 5
14 15 15 16 18 18 13 9 6 4 3 3 6 10 8 5 5 3 1 6 6 4 2 4 1 5 4 1 3 4 3 3 1 2 4 3 3 1 2 2 4 2 2 4 6 2 3
14 14 14 15 16 18 17 10 7 5 2 1 2 4 10 6 4 2 5 4 3 2 1 2 2 2 2 3 3 3 1 3 2 1 1 4 3 2 1 2 3 3 4 3 3 1 5
12 12 13 14 15 15 17 15 7 5 4 3 0 2 6 3 4 4 4 4 3 3 2 1 2 2 1 1 2 1 1 2 2 2 2 4 4 3 3 3 6 1 2 2 3 4 4
11 12 13 12 13 14 15 15 12 5 3 2 3 3 4 2 3 4 3 4 5 4 2 1 2 1 3 3 2 1 2 6 4 4 3 1 4 4 7 2 4 4 6 5 4 5 1
11 11 12 13 13 13 14 14 13 10 4 1 2 1 7 2 3 2 1 2 2 3 3 3 3 2 2 4 2 4 4 2 7 4 4 4 1 4 3 3 3 5 5 4 4 3 6
11 11 11 10 12 13 13 13 13 11 6 2 1 2 3 4 6 7 4 1 1 1 2 2 1 1 1 1 1 3 3 2 5 3 4 2 2 5 5 4 4 4 5 7 5 3 3
12 12 11 10 10 10 11 12 12 11 7 3 1 2 3 1 2 3 3 6 4 2 2 2 1 4 4 3 1 2 2 1 1 4 3 4 4 4 7 11 8 14 10 9 12 9 7
12 13 10 8 8 10 10 10 10 10 7 3 0 1 2 4 5 3 1 6 7 4 7 3 3 3 5 4 6 5 5 4 5 1 4 1 3 4 5 6 5 7 10 14 17 19 17
10 15 10 7 7 8 10 10 10 10 7 3 0 3 2 1 2 4 4 6 6 7 8 5 9 4 5 8 9 7 7 4 6 9 7 4 2 2 5 5 9 7 8 11 5 4 13
6 11 9 7 6 7 7 8 8 8 7 5 2 1 2 3 3 4 3 5 7 8 5 6 10 6 4 3 3 4 4 5 9 10 11 6 4 3 4 6 3 4 3 7 12 6 13
8 7 7 5 6 5 6 7 6 5 6 5 4 3 2 2 5 3 7 4 4 4 5 7 8 5 6 1 2 3 2 1 2 2 6 4 4 2 2 2 8 5 2 5 6 6 8
8 9 8 4 4 5 5 5 6 5 4 5 5 3 3 1 6 2 5 9 5 4 2 4 4 7 6 2 2 5 5 4 4 2 4 4 2 3 2 3 6 4 2 4 3 5 3
8 10 11 10 9 7 6 4 5 6 5 5 6 7 4 5 5 8 6 5 8 5 3 3 5 7 9 3 3 4 5 4 5 7 6 4 2 11 7 5 8 11 11 4 2 7 8
9 9 13 13 12 12 12 12 9 8 7 7 6 9 8 6 13 12 12 9 7 8 5 7 3 3 2 4 4 4 4 5 2 4 7 9 8 5 4 6 10 12 6 7 5 4 10
15 14 14 14 14 15 15 15 14 13 13 13 11 11 13 12 12 17 22 21 22 16 11 17 6 5 11 2 2 1 3 2 4 4 2 3 7 6 12 8 5 18 8 12 11 11 14
Wind_Direction
64 69 67 74 86 85 89 89 86 84 87 108 110 127 127 135 144 144 141 145 152 145 142 139 133 126 120 96 61 69 69 94 107 122 140 119 108 112 105 94 74 71 140 104 107 26 7
63 72 75 83 82 85 88 88 83 91 82 95 89 94 117 129 133 133 135 139 141 140 135 142 140 120 119 78 79 71 69 76 101 130 121 100 95 101 91 67 75 115 99 93 64 26 13
73 72 82 82 79 87 90 94 90 92 96 94 98 100 106 108 115 124 124 127 125 127 118 117 111 115 93 72 70 75 80 91 100 99 107 100 95 105 95 92 85 83 87 87 27 6 13
83 86 87 89 90 86 85 84 83 86 93 102 103 103 108 110 113 113 113 120 120 124 105 106 110 86 76 71 70 87 90 88 96 96 95 94 96 78 58 94 46 52 51 36 5 11 14
84 93 95 96 90 85 79 74 73 77 91 103 105 104 105 110 110 106 108 112 115 117 99 94 92 87 69 65 74 77 87 92 88 88 84 88 81 68 52 59 34 14 105 352 353 35 343
86 91 94 93 88 82 77 74 72 72 82 106 105 100 105 114 116 113 106 107 107 120 99 81 63 84 58 44 56 64 81 82 84 96 71 45 50 64 30 46 225 0 15 321 294 341 358
80 81 81 81 73 61 56 72 74 77 85 101 99 95 109 120 126 115 117 114 108 82 65 61 65 80 65 71 57 64 94 72 62 61 54 29 64 78 345 29 123 79 54 312 297 29 346
70 66 58 43 33 40 60 76 84 84 89 91 81 77 115 141 138 119 157 119 119 120 74 61 67 70 53 56 72 69 69 77 53 70 21 28 95 232 310 360 55 50 33 287 286 221 301
61 58 56 50 52 63 77 86 84 92 100 86 67 75 100 126 149 120 122 118 119 112 84 33 31 36 31 43 41 18 39 68 78 52 24 115 172 271 114 41 66 69 159 142 233 323 303
56 51 49 52 56 65 82 90 92 95 86 72 71 86 97 104 108 116 114 123 125 121 81 333 354 24 7 6 47 29 32 65 44 133 101 85 285 60 90 84 113 280 66 45 354 29 276
61 61 54 48 52 68 81 92 87 81 70 60 61 74 89 123 129 113 115 109 99 22 70 315 338 9 22 66 347 20 31 55 85 89 91 203 79 59 87 142 56 200 18 272 120 93 49
56 53 56 55 50 50 74 81 43 37 37 39 44 55 92 115 133 136 135 122 106 43 252 342 339 354 23 23 27 358 37 62 81 70 39 89 58 61 110 11 63 42 70 39 50 83 18
58 54 50 44 44 50 63 161 276 30 49 36 14 19 96 121 157 180 153 133 37 95 7 304 342 14 87 358 11 21 36 19 60 56 355 358 1 4 26 17 25 52 55 333 350 11 220
55 57 54 46 40 40 47 63 85 105 99 88 44 42 81 115 51 140 132 53 76 192 231 256 5 28 70 360 19 357 68 34 26 67 85 108 328 15 348 83 161 74 133 151 224 249 269
42 46 46 46 44 40 41 47 59 81 106 130 65 59 59 70 109 106 86 53 189 215 186 155 65 73 343 327 139 71 32 165 200 60 133 138 288 284 60 53 113 242 38 171 100 63 31
38 35 37 38 38 40 40 43 54 55 62 67 35 46 47 84 88 48 76 148 191 237 187 155 134 176 177 296 56 52 336 234 178 129 142 183 7 248 122 88 45 124 160 43 7 347 293
29 34 35 33 32 34 36 40 46 55 66 62 34 66 28 50 29 50 110 186 173 184 188 156 168 145 158 190 100 92 171 294 211 158 76 138 107 299 38 195 180 39 358 63 115 139 175
20 17 19 28 31 26 25 31 34 42 33 40 52 51 2 349 29 54 109 152 150 182 176 191 156 139 175 162 151 167 228 216 182 170 172 171 149 237 214 205 193 177 194 162 126 258 185
6 9 11 11 17 24 21 18 20 22 30 19 52 77 31 47 104 33 159 83 162 145 214 193 193 219 185 180 182 198 210 180 179 157 166 178 269 340 341 353 332 229 201 173 126 107 206
353 356 4 9 9 8 13 13 13 11 11 55 106 28 36 54 82 129 142 161 164 204 186 180 174 115 93 225 271 214 194 198 187 166 147 143 203 206 207 218 143 217 200 195 159 143 197
340 345 353 357 359 5 5 5 6 6 5 352 27 133 126 279 360 120 131 156 138 210 236 199 299 215 173 190 230 240 152 122 189 197 162 145 233 210 255 256 248 256 249 199 210 206 198
336 334 346 356 350 354 358 359 359 360 351 323 255 169 133 130 139 128 336 212 169 164 156 229 212 190 202 212 198 209 159 190 205 163 170 175 278 352 280 273 251 265 246 224 224 233 243
326 329 342 348 354 354 352 353 354 357 357 329 72 147 167 185 148 120 208 182 210 167 203 202 192 157 204 232 245 253 230 214 203 159 185 167 192 25 269 334 312 291 243 195 209 211 216
304 320 349 3 356 353 349 348 354 358 2 4 327 243 203 230 167 216 210 190 186 202 181 194 191 166 207 176 280 265 255 235 192 188 172 152 163 173 274 331 319 241 254 180 210 218 215
265 291 321 4 352 350 350 351 347 353 359 355 345 290 261 265 223 209 191 198 196 217 228 225 211 209 179 176 65 359 335 359 157 354 209 175 148 230 227 249 295 284 167 155 181 286 221
263 272 286 299 322 331 334 341 350 356 352 340 332 330 289 259 240 229 182 192 178 199 305 222 219 188 189 104 113 206 223 218 214 190 14 109 102 151 150 210 241 256 195 149 112 280 251
264 267 276 286 287 294 305 311 329 333 338 342 333 324 297 274 259 214 213 200 183 174 163 174 188 189 187 131 176 201 243 182 195 182 172 154 199 215 210 252 275 256 217 100 129 252 186
296 283 275 280 283 281 295 294 298 306 314 315 315 313 319 276 275 255 247 232 213 196 155 151 112 206 103 180 176 215 207 227 185 167 178 171 166 195 179 224 266 195 93 170 233 235 228
262 268 271 272 272 273 274 277 283 295 299 303 307 309 304 287 273 279 273 257 247 247 228 182 186 175 197 134 245 208 223 204 188 239 93 239 198 185 191 211 250 190 211 264 281 291 295
Height
1516 1513 1510 1508 1506 1506 1505 1505 1504 1505 1504 1508 1510 1511 1512 1514 1516 1518 1518 1520 1522 1522 1523 1525 1525 1524 1524 1525 1531 1531 1529 1528 1528 1529 1533 1533 1533 1535 1537 1539 1540 1544 1548 1548 1550 1551 1550
1521 1519 1516 1514 1512 1511 1511 1510 1510 1510 1511 1512 1514 1515 1516 1518 1519 1520 1521 1523 1524 1525 1526 1526 1527 1527 1527 1530 1533 1531 1528 1529 1529 1532 1533 1532 1533 1535 1536 1541 1544 1547 1547 1549 1550 1551 1551
1525 1523 1522 1520 1518 1517 1517 1518 1517 1517 1519 1519 1520 1520 1521 1521 1522 1524 1524 1525 1526 1527 1528 1528 1529 1529 1528 1534 1533 1532 1532 1532 1534 1535 1534 1536 1536 1536 1538 1543 1545 1546 1548 1550 1552 1552 1551
1530 1528 1528 1527 1526 1525 1525 1525 1524 1524 1523 1523 1523 1523 1524 1525 1525 1526 1526 1528 1528 1528 1529 1529 1529 1529 1532 1535 1535 1535 1535 1536 1537 1535 1536 1536 1537 1537 1540 1545 1547 1549 1551 1557 1554 1552 1552
1536 1534 1533 1532 1531 1531 1530 1530 1529 1528 1527 1527 1526 1526 1527 1527 1527 1528 1529 1529 1529 1530 1531 1531 1531 1529 1536 1536 1537 1536 1536 1537 1537 1537 1537 1538 1539 1542 1545 1550 1557 1559 1563 1557 1555 1557 1556
1541 1539 1538 1537 1536 1535 1534 1533 1532 1531 1530 1530 1530 1530 1530 1530 1530 1531 1532 1532 1532 1533 1533 1533 1533 1535 1540 1541 1539 1539 1539 1539 1539 1539 1539 1540 1541 1549 1555 1561 1576 1564 1563 1563 1561 1560 1555
1544 1543 1542 1540 1539 1538 1536 1535 1534 1534 1533 1533 1533 1532 1532 1532 1533 1533 1533 1534 1537 1538 1536 1541 1542 1542 1543 1543 1543 1542 1541 1541 1541 1542 1547 1547 1556 1572 1566 1563 1563 1562 1566 1567 1562 1563 1562
1547 1546 1544 1543 1541 1539 1538 1538 1537 1536 1536 1536 1536 1535 1535 1534 1535 1535 1535 1534 1535 1540 1545 1546 1545 1546 1545 1545 1545 1544 1544 1544 1543 1551 1550 1558 1570 1565 1564 1564 1564 1564 1568 1571 1567 1565 1568
1549 1548 1547 1545 1543 1542 1541 1540 1539 1539 1538 1538 1538 1537 1537 1537 1536 1536 1536 1537 1538 1539 1543 1548 1549 1548 1549 1549 1549 1547 1546 1547 1550 1556 1559 1563 1567 1565 1565 1568 1569 1572 1571 1575 1576 1568 1562
1551 1549 1548 1546 1545 1544 1543 1542 1542 1541 1541 1540 1539 1539 1539 1539 1541 1539 1539 1540 1540 1541 1556 1558 1553 1553 1553 1550 1552 1551 1550 1551 1553 1561 1562 1566 1566 1565 1565 1570 1573 1569 1571 1572 1574 1581 1583
1553 1551 1549 1548 1547 1546 1545 1545 1544 1543 1542 1541 1541 1540 1540 1540 1540 1541 1542 1541 1540 1541 1584 1560 1556 1555 1553 1553 1555 1553 1552 1551 1556 1559 1562 1568 1567 1568 1568 1570 1570 1573 1572 1574 1578 1588 1595
1556 1554 1551 1549 1547 1546 1545 1545 1545 1544 1544 1543 1542 1541 1540 1541 1541 1541 1541 1541 1543 1562 1588 1565 1559 1557 1556 1556 1556 1555 1554 1554 1557 1559 1563 1568 1568 1569 1570 1570 1571 1573 1575 1580 1583 1589 1603
1559 1556 1553 1551 1548 1546 1545 1545 1544 1544 1544 1544 1543 1541 1541 1540 1541 1541 1541 1542 1562 1579 1566 1568 1564 1561 1562 1563 1560 1560 1561 1565 1570 1573 1581 1573 1572 1571 1571 1572 1573 1576 1589 1608 1599 1606 1580
1560 1558 1556 1554 1550 1547 1545 1544 1544 1544 1544 1544 1543 1541 1541 1540 1540 1540 1542 1545 1577 1565 1565 1564 1564 1563 1566 1567 1566 1565 1566 1578 1569 1572 1589 1593 1587 1575 1573 1574 1578 1584 1592 1610 1596 1605 1595
1563 1560 1558 1556 1553 1550 1547 1545 1544 1544 1544 1544 1544 1543 1541 1541 1541 1542 1543 1574 1571 1565 1563 1564 1565 1574 1570 1567 1569 1570 1572 1578 1573 1571 1575 1583 1577 1574 1574 1574 1578 1586 1600 1588 1607 1620 1616
1564 1563 1561 1558 1556 1553 1551 1549 1547 1545 1545 1544 1543 1543 1542 1542 1542 1542 1547 1566 1565 1563 1562 1563 1565 1566 1577 1570 1575 1568 1575 1570 1570 1570 1570 1576 1588 1575 1575 1575 1577 1580 1581 1594 1611 1596 1602
1566 1564 1562 1560 1558 1555 1553 1551 1549 1548 1546 1545 1545 1544 1545 1544 1543 1543 1564 1566 1563 1562 1562 1563 1563 1563 1564 1565 1567 1570 1573 1570 1569 1570 1570 1574 1583 1579 1576 1578 1579 1585 1591 1589 1595 1598 1617
1567 1566 1564 1561 1559 1557 1555 1553 1551 1549 1548 1547 1545 1546 1546 1545 1546 1552 1560 1558 1559 1560 1561 1561 1562 1562 1563 1566 1567 1576 1570 1573 1568 1569 1571 1572 1581 1586 1572 1570 1570 1573 1574 1577 1600 1595 1607
1567 1565 1564 1563 1561 1557 1556 1554 1552 1550 1549 1548 1547 1547 1546 1545 1558 1561 1559 1558 1559 1560 1561 1561 1561 1561 1561 1563 1565 1566 1567 1567 1568 1569 1571 1572 1580 1587 1569 1574 1571 1570 1567 1567 1573 1581 1591
1567 1565 1564 1562 1561 1560 1557 1554 1553 1551 1549 1548 1548 1551 1549 1547 1548 1552 1558 1560 1560 1560 1560 1561 1562 1562 1563 1563 1563 1565 1566 1568 1568 1569 1569 1570 1575 1571 1569 1556 1562 1566 1562 1564 1566 1590 1580
1567 1565 1563 1563 1561 1559 1557 1555 1553 1551 1549 1549 1548 1548 1549 1556 1554 1553 1554 1557 1560 1561 1561 1562 1562 1562 1562 1565 1565 1565 1565 1568 1568 1568 1569 1570 1573 1570 1564 1560 1558 1553 1555 1561 1563 1559 1560
1566 1564 1563 1561 1560 1559 1557 1555 1553 1551 1550 1549 1548 1549 1549 1549 1550 1554 1556 1557 1556 1557 1559 1561 1562 1559 1562 1562 1561 1562 1563 1566 1566 1570 1571 1571 1571 1570 1563 1551 1553 1552 1546 1544 1545 1541 1543
1565 1564 1562 1561 1559 1558 1557 1554 1553 1552 1551 1550 1548 1547 1548 1551 1551 1551 1550 1551 1552 1552 1554 1553 1554 1556 1558 1556 1555 1556 1557 1557 1558 1563 1570 1572 1574 1571 1568 1555 1554 1545 1525 1531 1531 1527 1527
1564 1563 1563 1561 1558 1557 1556 1554 1552 1551 1552 1552 1551 1549 1548 1548 1550 1551 1548 1548 1549 1549 1550 1550 1550 1552 1552 1552 1553 1554 1555 1556 1556 1557 1558 1567 1570 1572 1571 1559 1546 1515 1514 1516 1518 1514 1515
1561 1562 1560 1560 1560 1557 1556 1555 1552 1550 1551 1551 1551 1551 1548 1548 1545 1543 1544 1546 1548 1548 1550 1549 1549 1549 1549 1551 1554 1555 1556 1555 1556 1558 1558 1559 1564 1567 1573 1577 1537 1506 1510 1512 1514 1507 1502
1558 1561 1560 1559 1559 1558 1556 1555 1553 1551 1549 1551 1551 1549 1550 1547 1542 1543 1542 1543 1545 1548 1548 1546 1547 1547 1549 1551 1554 1553 1553 1544 1553 1557 1557 1558 1559 1567 1570 1568 1544 1506 1507 1507 1508 1514 1495
1555 1558 1559 1558 1557 1556 1555 1553 1552 1551 1549 1548 1551 1551 1549 1546 1541 1542 1541 1540 1538 1540 1543 1544 1545 1546 1547 1552 1556 1557 1551 1541 1544 1548 1557 1560 1562 1556 1559 1553 1537 1504 1505 1508 1517 1503 1492
1555 1554 1557 1555 1554 1555 1553 1553 1551 1550 1549 1548 1546 1549 1550 1545 1539 1537 1539 1538 1537 1534 1535 1540 1546 1544 1548 1550 1550 1546 1547 1537 1536 1533 1539 1541 1550 1554 1552 1553 1538 1498 1505 1508 1495 1490 1490
1551 1550 1552 1551 1551 1550 1550 1550 1551 1549 1548 1547 1545 1545 1547 1545 1538 1534 1531 1533 1533 1534 1532 1528 1528 1534 1536 1541 1542 1538 1537 1535 1532 1534 1529 1532 1518 1526 1524 1510 1494 1494 1492 1492 1492 1491 1491